Content
SEND FEEDBACK

Daily
Averages
Monthly
Summary
United Kingdom

CARDIFF, WALES


Home > Europe > United Kingdom > Wales
Elevation: 220 feet     Latitude: 51 24N     Longitude: 003 21W

WEATHER
 
SELECT A DAY
Number of Records: 275,039;   Date Range: 7/1/96 - 7/28/14
 
SHARE

PRINT THIS DATA

[ ← Previous Day ]
WEATHER ALMANAC - JANUARY 31, 2013
[ Next Day → ]
[ °C ]   °F
Weather ElementAverageHighLow
Temperature47.7 °F50 °F (3:20 am)44.6 °F (8:50 am)
Dewpoint42.5 °F44.6 °F (4:20 am)39.2 °F (8:50 am)
Humidity82.1 %87 % (4:20 am)76 % (1:20 am)
Barometer29.88 in29.98 in (12:50 am)29.77 in (4:50 am)
Wind Speed18.8 mph25.3 mph (4:50 am)
Wind Gust41.4 mph (4:50 am)
Weather ElementAverage
Visibility5.8 mi
Wind DirectionWSW (254.7 °)

Weather ElementTotal
Precipitation---
Heating Degree Days17.7 (Base 65)
Averaged from 47 records on January 31, 2013
WEATHER CONDITIONS BREAKOUT
WIND DIRECTION BREAKOUT
WEATHER BY HOUR - JANUARY 31, 2013
[ °C ]   °F
Local TimeTemperatureDewpointHumidityBarometerVisibilityWind DirectionWind SpeedGust SpeedPrecipitationEventsConditions
12:50 AM46.4 °F41.0 °F81 %29.98 in6.2 miSW (220°)12.7 mph
1:20 AM48.2 °F41.0 °F76 %29.95 in6.2 miSSW (210°)12.7 mphPartly Cloudy
1:50 AM48.2 °F41.0 °F76 %29.92 in6.2 miSouth (190°)12.7 mphMostly Cloudy
2:20 AM48.2 °F41.0 °F76 %29.92 in6.2 miSSW (200°)10.4 mphMostly Cloudy
2:50 AM48.2 °F42.8 °F82 %29.89 in6.2 miSW (220°)16.1 mphMostly Cloudy
3:20 AM50.0 °F42.8 °F76 %29.86 in6.2 miSW (220°)18.4 mph31.1 mphMostly Cloudy
3:50 AM48.2 °F42.8 °F82 %29.80 in6.2 miSW (220°)21.9 mph33.4 mphRainRain
4:20 AM48.2 °F44.6 °F87 %29.80 in4.3 miSW (230°)19.6 mphRainHeavy Rain
4:50 AM48.2 °F42.8 °F82 %29.77 in6.2 miWest (260°)25.3 mph41.4 mphRainRain Showers
5:20 AM50.0 °F44.6 °F82 %29.77 in6.2 miWSW (250°)25.3 mphPartly Cloudy
5:50 AM50.0 °F44.6 °F82 %29.77 in6.2 miWest (260°)25.3 mph38.0 mphMostly Cloudy
6:20 AM48.2 °F44.6 °F87 %29.80 in5.0 miWest (260°)20.7 mphMostly Cloudy
6:50 AM48.2 °F42.8 °F82 %29.80 in4.3 miWest (260°)21.9 mphMostly Cloudy
7:20 AM48.2 °F42.8 °F82 %29.80 in5.6 miWest (260°)18.4 mphScattered Clouds
7:50 AM48.2 °F42.8 °F82 %29.80 in3.7 miWest (260°)23.0 mphMostly Cloudy
8:20 AM48.2 °F41.0 °F76 %29.80 in3.7 miWest (260°)24.2 mph38.0 mphScattered Clouds
8:50 AM44.6 °F39.2 °F81 %29.83 in6.2 miWest (270°)23.0 mphRainHeavy Rain Showers
9:20 AM46.4 °F42.8 °F87 %29.83 in5.0 miWest (270°)18.4 mphMostly Cloudy
9:50 AM48.2 °F42.8 °F82 %29.86 in5.0 miWest (270°)18.4 mphScattered Clouds
10:20 AM48.2 °F41.0 °F76 %29.86 in5.0 miWest (260°)23.0 mphScattered Clouds
10:50 AM46.4 °F41.0 °F81 %29.89 in6.2 miWest (270°)19.6 mphRainLight Rain Showers
11:20 AM44.6 °F41.0 °F87 %29.89 in6.2 miWest (280°)21.9 mph34.5 mphScattered Clouds
11:50 AM48.2 °F42.8 °F82 %29.89 in6.2 miWest (270°)20.7 mphScattered Clouds
12:20 PM48.2 °F42.8 °F82 %29.89 in6.2 miWest (270°)18.4 mphPartly Cloudy
12:50 PM48.2 °F42.8 °F82 %29.92 in6.2 miWest (270°)20.7 mphPartly Cloudy
1:20 PM48.2 °F42.8 °F82 %29.92 in5.6 miWest (270°)17.3 mphMostly Cloudy
1:50 PM48.2 °F42.8 °F82 %29.92 in5.0 miWest (260°)17.3 mphMostly Cloudy
2:20 PM48.2 °F42.8 °F82 %29.92 in5.6 miWest (260°)19.6 mphMostly Cloudy
2:50 PM48.2 °F42.8 °F82 %29.92 in6.2 miWest (260°)20.7 mphScattered Clouds
3:20 PM48.2 °F42.8 °F82 %29.92 in6.2 miWest (260°)20.7 mphScattered Clouds
3:50 PM48.2 °F42.8 °F82 %29.92 in5.6 miWest (260°)19.6 mphScattered Clouds
4:20 PM46.4 °F42.8 °F87 %29.92 in6.2 miWest (260°)18.4 mphMostly Cloudy
4:50 PM46.4 °F42.8 °F87 %29.92 in6.2 miWest (260°)18.4 mphMostly Cloudy
5:20 PM46.4 °F42.8 °F87 %29.92 in6.2 miWest (260°)18.4 mphMostly Cloudy
5:50 PM48.2 °F42.8 °F82 %29.92 in6.2 miWest (260°)19.6 mphRainLight Rain
6:20 PM48.2 °F42.8 °F82 %29.92 in6.2 miWest (260°)19.6 mphMostly Cloudy
6:50 PM48.2 °F42.8 °F82 %29.92 in5.6 miWest (260°)17.3 mphMostly Cloudy
7:20 PM48.2 °F42.8 °F82 %29.92 in5.6 miWSW (250°)16.1 mphMostly Cloudy
7:50 PM48.2 °F42.8 °F82 %29.92 in6.2 miWest (260°)16.1 mphScattered Clouds
8:20 PM48.2 °F42.8 °F82 %29.92 in6.2 miWSW (250°)15.0 mphRainLight Rain
8:50 PM48.2 °F42.8 °F82 %29.89 in6.2 miWSW (250°)17.3 mphMostly Cloudy
9:20 PM48.2 °F42.8 °F82 %29.89 in6.2 miWest (260°)18.4 mphMostly Cloudy
9:50 PM48.2 °F42.8 °F82 %29.89 in6.2 miWest (260°)18.4 mphPartly Cloudy
10:20 PM48.2 °F42.8 °F82 %29.86 in6.2 miWSW (250°)17.3 mphMostly Cloudy
10:50 PM46.4 °F41.0 °F81 %29.86 in6.2 miWest (270°)18.4 mphPartly Cloudy
11:20 PM44.6 °F41.0 °F87 %29.86 in6.2 miWest (280°)11.5 mphScattered Clouds
11:50 PM44.6 °F41.0 °F87 %29.86 in6.2 miWNW (300°)16.1 mphMostly Cloudy
Hourly data recorded from EGFF, located miles away from Cardiff, Wales







STORIES FROM OUR PARTNERS